Regional Weather Roundup
Issued by NWS Sioux Falls, SD

Home | Current Version | Previous Version | Text Only | Print | Product List | Glossary Off
Versions: 1 2 3 4 5 6 7 8 9 10 11 12 13 14 15 16 17 18 19 20 21 22 23 24 25 26 27 28 29 30 31 32 33 34 35 36 37 38 39 40 41 42 43 44 45 46 47 48 49 50

000
ASUS43 KFSD 270202
RWRFSD

WEATHER ROUNDUP FOR SE SOUTH DAKOTA/SW MINNESOTA/NW IOWA
NATIONAL WEATHER SERVICE SIOUX FALLS SD
900 PM CDT TUE JUL 26 2016

NOTE: "FAIR" INDICATES FEW OR NO CLOUDS BELOW 12,000 FEET WITH NO
SIGNIFICANT WEATHER AND OR OBSTRUCTIONS TO VISIBILITY.


SDZ038>040-050-052>070-270300-
SOUTHEAST SOUTH DAKOTA

CITY           SKY/WX    TMP DP  RH WIND       PRES   REMARKS
BROOKINGS      PTCLDY    75  71  87 SE8       29.96S
CHAMBERLAIN    DRIZZLE   73  62  68 S21G32    29.89F
HURON          MOCLDY    79  67  66 SE8       29.89S
MADISON        FAIR      73  72  94 S8        29.97S
MITCHELL       CLOUDY    84  66  54 S25G31    29.89F
SIOUX FALLS    MOCLDY    80  65  59 S15       29.97S
WINNER         MOCLDY    67  61  81 SE25G39   29.99R THUNDER
YANKTON        CLEAR     77  64  65 SE7       29.98R
$$

MNZ071-072-080-081-089-090-097-098-270300-
SOUTHWEST MINNESOTA

CITY           SKY/WX    TMP DP  RH WIND       PRES   REMARKS
FAIRMONT       PTCLDY    75  66  73 S8        29.98F
JACKSON        CLOUDY    77  66  69 S10       29.99F
LUVERNE        MOCLDY    73  64  73 S7        29.99R
MARSHALL       PTCLDY    78  70  76 S6        29.97R
MONTEVIDEO     CLOUDY    73  64  73 N3        29.98S
REDWOOD FALLS  MOCLDY    79  68  69 S7        29.95R
TRACY          MOCLDY    78  70  75 S3        29.97S
WINDOM         PTCLDY    79  68  69 S5        29.98S
WORTHINGTON    PTCLDY    76  68  76 S8        30.00R
$$

IAZ001>003-012>014-020>022-031-032-NEZ013-014-SDZ071-270300-
NORTHWEST IOWA

CITY           SKY/WX    TMP DP  RH WIND       PRES   REMARKS
CHEROKEE       CLEAR     76  70  82 SE6       30.01R
DENISON        CLEAR     73  68  83 E6        30.00S
ESTHERVILLE    PTCLDY    74  69  85 S8        29.99F
LE MARS        CLEAR     77  68  73 S7        30.00S
SHELDON        CLEAR     73  70  88 S9        29.98S
SIOUX CITY     CLEAR     77  67  71 S6        30.00R
SPENCER        CLOUDY    76  67  73 S8        30.00F
STORM LAKE     CLEAR     73  68  83 SE7       30.03S
$$

ABBREVIATIONS USED IN REMARKS
   TC - TEMPERATURE IN CELSIUS
  WCI - WIND CHILL INDEX
   HX - HEAT INDEX
  VSB - VISIBILITY





USA.gov is the U.S. government's official web portal to all federal, state and local government web resources and services.